星链-33961 (STARLINK-33961)

导读 | 星芒AI

STARLINK-33961 是 SpaceX Starlink 卫星互联网项目中的一颗低轨卫星,属于第二批部署的星链卫星之一。该卫星于2022年发射,运行在约550公里高度的近地轨道,旨在为全球用户提供高速、低延迟的互联网服务。Starlink 项目计划部署数千颗卫星,以构建覆盖全球的宽带网络,尤其服务于偏远和网络基础设施薄弱的地区。STARLINK-33961 采用先进推进系统和激光通信技术,提高网络效率与稳定性。

基本信息
目录编号:
64047
目录名称:
STARLINK-33961
国际标识:
2025-102AB
轨道中心:
EARTH
卫星名称:
星链-33961
卫星全名:
星链-33961 (STARLINK-33961)
卫星状态:
在轨 (已飞行168 天)
发射日期:
2025-05-16 UTC
国别 :
美国 (US)
星等 :
--
轨道信息
数据来源 国际轨道数据 AOE轨道数据
星历时间 2025-10-31T01:19:44+0800
16小时前
查看轨道信息
2025-10-26T15:00:00+0800
5天前
查看轨道信息
半长轴 6950.368km 6950.227km
偏心率 0.0003516 0.0003203
轨道倾角 70.001° 70.002°
近地点辐角 279.418° 274.212°
升交点赤经 82.171° 93.344°
平近点角 80.659° 316.214°
近地点 569.789km 569.865km
远地点 574.677km 574.319km
周期 96.111分钟 96.108分钟
每日圈数 14.982735 14.983192
详细信息
固有亮度:
5
最大亮度:
2.5
卫星平台:
Starlink V1.0
覆盖范围:
全球
运营商:
太空探索技术公司
运营商所在国:
美国
制造商(研发单位):
太空探索技术公司
制造商所在国:
美国
使用方式:
暂无
卫星简介
Starlink 计划是 SpaceX 推出的全球卫星互联网项目,通过发射低轨道卫星,为全球尤其是偏远地区提供高速、低延迟的互联网服务。自 2019 年起,Starlink 已部署数千颗卫星,旨在缩小全球数字鸿沟,推动互联网普及。该项目还为军事、航空等行业提供通信支持,带来广泛经济效益。
2D轨道图
3D轨道图
轨道高度分析图
轨道倾角分析图
轨道综合分析图
查看轨道综合分析图